Ludington, MI

9:38 AM EDT on September 29, 2016 (GMT -0400)
Mason County

Weather History for KLDM - March, 2013

Change the Weather History Date:

Thursday, March 21, 2013

  Actual Average Record
Temperature  
Mean Temperature 26 °F -  
Max Temperature 30 °F 43 °F 79 °F (2012)
Min Temperature 22 °F 24 °F 4 °F (1988)
Degree Days  
Heating Degree Days 39    
Moisture  
Dew Point 19 °F    
Average Humidity 69    
Maximum Humidity 83    
Minimum Humidity 58    
Precipitation  
Precipitation 0.00 in - - ()
Sea Level Pressure  
Sea Level Pressure 29.93 in    
Wind  
Wind Speed 10 mph (NNW)    
Max Wind Speed 15 mph    
Max Gust Speed 22 mph    
Visibility 8 miles    
Events Snow    
Averages and records for this station are not official NWS values.
T = Trace of Precipitation, MM = Missing Value Source: NWS Daily Summary

Daily Weather History Graph

Daily Weather History Graph

Search for Another Location

Airport or City:

Trip Planner

Search our weather history database for the weather conditions in past years. The results will help you decide how hot, cold, wet, or windy it might be!

Date:

Astronomy

Mar. 21, 2013 Rise Set
Actual Time 7:46 AM EDT 7:59 PM EDT
Civil Twilight 7:17 AM EDT 8:28 PM EDT
Nautical Twilight 6:44 AM EDT 9:02 PM EDT
Astronomical Twilight 6:09 AM EDT 9:36 PM EDT
Moon 2:19 PM EDT (3/21) 4:18 AM EDT (3/21)
Length of Visible Light 13h 10m
Length of Day
12h 13m
Waxing Gibbous, 68% of the Moon is Illuminated
Mar 21
Waxing Gibbous
Mar 27
Full
Apr 3
Last Quarter
Apr 10
New
Apr 18
First Quarter

Hourly Weather History & Observations

Time (EDT) Temp. Windchill Dew Point Humidity Pressure Visibility Wind Dir Wind Speed Gust Speed Precip Events Conditions
12:15 AM 23.0 °F 12.4 °F 15.1 °F 72% 29.91 in 10.0 mi NNW 10.4 mph 19.6 mph N/A   Overcast
12:35 AM 23.4 °F 12.8 °F 14.0 °F 67% 29.91 in 10.0 mi NNW 10.4 mph 16.1 mph N/A Snow Light Snow
12:54 AM 23.4 °F 12.2 °F 14.0 °F 67% 29.91 in 10.0 mi NNW 11.5 mph 18.4 mph N/A   Overcast
1:35 AM 23.0 °F 13.1 °F 14.2 °F 69% 29.91 in 7.0 mi NW 9.2 mph 17.3 mph N/A Snow Light Snow
2:15 AM 23.0 °F 14.7 °F 14.9 °F 71% 29.91 in 4.0 mi NNW 6.9 mph - N/A Snow Light Snow
2:35 AM 22.8 °F 10.9 °F 16.3 °F 76% 29.92 in 2.5 mi NNW 12.7 mph 19.6 mph N/A Snow Light Snow
2:54 AM 22.8 °F 11.5 °F 18.0 °F 82% 29.91 in 1.8 mi NNW 11.5 mph 18.4 mph N/A Snow Light Snow
3:15 AM 22.8 °F 12.2 °F 18.5 °F 83% 29.91 in 0.8 mi NNW 10.4 mph 18.4 mph N/A Snow Snow
3:34 AM 22.8 °F 11.5 °F 18.5 °F 83% 29.91 in 1.2 mi NNW 11.5 mph 19.6 mph N/A Snow Light Snow
3:55 AM 22.8 °F 12.9 °F 18.5 °F 83% 29.90 in 1.5 mi NNW 9.2 mph 17.3 mph N/A Snow Light Snow
4:15 AM 22.8 °F 10.9 °F 18.5 °F 83% 29.90 in 1.5 mi NW 12.7 mph 19.6 mph N/A Snow Light Snow
4:34 AM 22.8 °F 11.5 °F 18.1 °F 82% 29.90 in 2.0 mi NW 11.5 mph 20.7 mph N/A Snow Light Snow
4:55 AM 23.2 °F 13.3 °F 18.0 °F 80% 29.89 in 3.0 mi NW 9.2 mph 17.3 mph N/A Snow Light Snow
5:15 AM 23.7 °F 13.3 °F 17.6 °F 77% 29.89 in 7.0 mi NW 10.4 mph - N/A Snow Light Snow
5:35 AM 25.2 °F 14.4 °F 19.0 °F 78% 29.89 in 7.0 mi NNW 11.5 mph 18.4 mph N/A Snow Light Snow
5:55 AM 25.3 °F 14.7 °F 19.2 °F 78% 29.89 in 5.0 mi NNW 11.5 mph 18.4 mph N/A Snow Light Snow
6:15 AM 25.3 °F 14.1 °F 19.2 °F 78% 29.89 in 4.0 mi NNW 12.7 mph 18.4 mph N/A Snow Light Snow
6:35 AM 25.3 °F 15.3 °F 20.1 °F 81% 29.89 in 5.0 mi NNW 10.4 mph - N/A Snow Light Snow
6:55 AM 25.3 °F 14.7 °F 19.9 °F 80% 29.89 in 10.0 mi NNW 11.5 mph 20.7 mph N/A Snow Light Snow
7:14 AM 25.3 °F 15.3 °F 19.9 °F 80% 29.90 in 10.0 mi NNW 10.4 mph 16.1 mph N/A Snow Light Snow
7:35 AM 25.3 °F 14.7 °F 19.8 °F 79% 29.89 in 10.0 mi NNW 11.5 mph - N/A   Overcast
7:55 AM 26.6 °F 16.2 °F 20.8 °F 79% 29.89 in 10.0 mi NNW 11.5 mph 16.1 mph N/A Snow Light Snow
8:14 AM 26.6 °F 17.5 °F 20.8 °F 79% 29.89 in 10.0 mi NNW 9.2 mph 17.3 mph N/A   Overcast
8:55 AM 27.9 °F 17.8 °F 22.1 °F 79% 29.90 in 10.0 mi North 11.5 mph 18.4 mph N/A Snow Light Snow
9:14 AM 27.9 °F 17.8 °F 21.7 °F 78% 29.90 in 10.0 mi North 11.5 mph 18.4 mph N/A   Overcast
9:35 AM 28.6 °F 20.7 °F 21.6 °F 75% 29.90 in 10.0 mi NNW 8.1 mph 16.1 mph N/A   Mostly Cloudy
9:55 AM 27.9 °F 19.8 °F 21.2 °F 76% 29.90 in 10.0 mi NNW 8.1 mph 17.3 mph N/A Snow Light Snow
10:14 AM 30.2 °F 21.3 °F 23.0 °F 75% 29.91 in 10.0 mi NNW 10.4 mph 18.4 mph N/A Snow Light Snow
10:35 AM 30.2 °F 20.8 °F 22.5 °F 73% 29.91 in 10.0 mi NNW 11.5 mph 17.3 mph N/A   Overcast
10:55 AM 30.2 °F 22.6 °F 22.5 °F 73% 29.92 in 10.0 mi NNW 8.1 mph - N/A Snow Light Snow
11:15 AM 30.2 °F 21.9 °F 21.7 °F 71% 29.92 in 10.0 mi North 9.2 mph - N/A   Overcast
11:35 AM 30.2 °F 20.8 °F 21.9 °F 71% 29.92 in 10.0 mi North 11.5 mph 16.1 mph N/A Snow Light Snow
11:54 AM 30.2 °F 20.8 °F 21.2 °F 69% 29.92 in 10.0 mi North 11.5 mph - N/A   Overcast
12:15 PM 30.2 °F 20.8 °F 21.2 °F 69% 29.92 in 10.0 mi NNW 11.5 mph 18.4 mph N/A   Overcast
12:35 PM 30.2 °F 20.2 °F 21.6 °F 70% 29.92 in 10.0 mi North 12.7 mph 17.3 mph N/A Snow Light Snow
12:54 PM 30.2 °F 20.2 °F 20.8 °F 68% 29.93 in 7.0 mi NNW 12.7 mph 18.4 mph N/A Snow Light Snow
1:15 PM 30.2 °F 21.3 °F 21.2 °F 69% 29.94 in 5.0 mi NNW 10.4 mph 20.7 mph N/A Snow Light Snow
1:35 PM 30.2 °F 22.6 °F 21.2 °F 69% 29.94 in 5.0 mi NNW 8.1 mph - N/A Snow Light Snow
1:54 PM 30.2 °F 19.8 °F 20.7 °F 68% 29.94 in 5.0 mi NNW 13.8 mph 19.6 mph N/A Snow Light Snow
2:15 PM 30.2 °F 20.2 °F 21.0 °F 69% 29.94 in 4.0 mi NNW 12.7 mph 17.3 mph N/A Snow Light Snow
2:35 PM 30.2 °F 21.3 °F 21.7 °F 71% 29.94 in 3.0 mi NNW 10.4 mph 20.7 mph N/A Snow Light Snow
2:54 PM 30.2 °F 21.3 °F 21.7 °F 71% 29.94 in 5.0 mi NNW 10.4 mph - N/A Snow Light Snow
3:15 PM 30.2 °F 19.3 °F 19.8 °F 65% 29.94 in 10.0 mi NNW 15.0 mph 19.6 mph N/A   Overcast
3:34 PM 30.2 °F 19.8 °F 19.2 °F 64% 29.94 in 10.0 mi NNW 13.8 mph 19.6 mph N/A   Overcast
3:55 PM 30.2 °F 20.8 °F 18.1 °F 61% 29.94 in 10.0 mi NNW 11.5 mph 18.4 mph N/A   Overcast
4:15 PM 30.2 °F 19.8 °F 18.1 °F 61% 29.94 in 10.0 mi NNW 13.8 mph 18.4 mph N/A   Overcast
4:34 PM 30.2 °F 20.8 °F 18.3 °F 61% 29.95 in 10.0 mi NW 11.5 mph 21.9 mph N/A   Overcast
4:55 PM 29.1 °F 20.0 °F 16.7 °F 60% 29.95 in 10.0 mi NNW 10.4 mph 20.7 mph N/A   Overcast
5:15 PM 30.2 °F 23.4 °F 18.1 °F 61% 29.95 in 10.0 mi NNW 6.9 mph - N/A   Overcast
5:34 PM 30.2 °F 21.9 °F 17.4 °F 59% 29.95 in 10.0 mi NNW 9.2 mph - N/A   Overcast
5:55 PM 29.8 °F 20.9 °F 17.1 °F 59% 29.96 in 10.0 mi NNW 10.4 mph 17.3 mph N/A   Overcast
6:15 PM 28.0 °F 18.1 °F 15.3 °F 59% 29.96 in 10.0 mi NNW 11.5 mph 17.3 mph N/A   Overcast
6:35 PM 27.9 °F 17.8 °F 15.3 °F 59% 29.96 in 10.0 mi NNW 11.5 mph - N/A   Overcast
6:55 PM 27.9 °F 19.1 °F 14.9 °F 58% 29.96 in 10.0 mi NW 9.2 mph - N/A   Overcast
7:14 PM 27.9 °F 20.6 °F 15.6 °F 60% 29.95 in 10.0 mi NNW 6.9 mph - N/A   Overcast
7:35 PM 27.9 °F 21.5 °F 15.3 °F 59% 29.96 in 10.0 mi NNW 5.8 mph - N/A   Overcast
7:55 PM 27.9 °F 19.8 °F 15.6 °F 60% 29.96 in 10.0 mi NNW 8.1 mph - N/A   Overcast
8:14 PM 27.9 °F 20.6 °F 15.8 °F 61% 29.96 in 10.0 mi NW 6.9 mph - N/A   Overcast
8:35 PM 27.9 °F 22.6 °F 16.0 °F 61% 29.96 in 10.0 mi NNW 4.6 mph - N/A   Overcast
8:55 PM 27.9 °F 21.5 °F 15.8 °F 61% 29.96 in 10.0 mi NNW 5.8 mph - N/A   Overcast
9:14 PM 28.8 °F 23.7 °F 16.3 °F 60% 29.96 in 10.0 mi NNW 4.6 mph - N/A   Overcast
9:35 PM 30.2 °F 24.3 °F 17.6 °F 60% 29.96 in 10.0 mi NNW 5.8 mph - N/A   Overcast
9:55 PM 30.2 °F 24.3 °F 17.4 °F 59% 29.96 in 10.0 mi North 5.8 mph - N/A   Overcast
10:14 PM 30.2 °F 26.7 °F 17.2 °F 59% 29.97 in 10.0 mi NW 3.5 mph - N/A   Overcast
10:35 PM 30.2 °F 25.4 °F 17.8 °F 60% 29.97 in 10.0 mi NNW 4.6 mph - N/A   Overcast
10:54 PM 30.2 °F 25.4 °F 17.2 °F 59% 29.97 in 10.0 mi NNW 4.6 mph - N/A   Overcast
11:15 PM 30.2 °F 25.4 °F 16.9 °F 58% 29.97 in 10.0 mi NW 4.6 mph - N/A   Overcast
11:35 PM 30.2 °F 23.4 °F 17.8 °F 60% 29.97 in 10.0 mi NNW 6.9 mph - N/A   Overcast
11:54 PM 30.2 °F 25.4 °F 18.1 °F 61% 29.97 in 10.0 mi WNW 4.6 mph - N/A   Overcast